Weather History for Pittsburgh Allegheny Co., PA

Change the Weather History Date:

Thursday, November 7, 2013

  Actual Average Record
Temperature  
Mean Temperature 48 °F -  
Max Temperature 57 °F 49 °F 71 °F (2008)
Min Temperature 39 °F 33 °F 28 °F (2007)
Degree Days  
Heating Degree Days 17    
Moisture  
Dew Point 41 °F    
Average Humidity 79    
Maximum Humidity 94    
Minimum Humidity 49    
Precipitation  
Precipitation 0.72 in - - ()
Sea Level Pressure  
Sea Level Pressure 30.00 in    
Wind  
Wind Speed 10 mph (WNW)    
Max Wind Speed 17 mph    
Max Gust Speed 28 mph    
Visibility 8 miles    
Events Rain    
Averages and records for this station are not official NWS values.
T = Trace of Precipitation, MM = Missing Value Source: NWS Daily Summary

Daily Weather History Graph

Daily Weather History Graph

Search for Another Location

Airport:

Trip Planner

Search our weather history database for the weather conditions in past years. The results will help you decide how hot, cold, wet, or windy it might be!

Date:

Astronomy

Nov. 07, 2013 Rise Set
Actual Time 6:56 AM EST 5:09 PM EST
Civil Twilight 6:27 AM EST 5:38 PM EST
Nautical Twilight 5:55 AM EST 6:10 PM EST
Astronomical Twilight 5:23 AM EST 6:42 PM EST
Moon 11:04 AM EST (11/7) 9:19 PM EST (11/7)
Length of Visible Light 11h 10m
Length of Day
10h 13m
Waxing Crescent, 22% of the Moon is Illuminated
Nov 7
Waxing Crescent
Nov 10
First Quarter
Nov 17
Full
Nov 25
Last Quarter
Dec 2
New

Hourly Weather History & Observations

Time (EST) Temp. Windchill Dew Point Humidity Pressure Visibility Wind Dir Wind Speed Gust Speed Precip Events Conditions
12:22 AM 57.2 °F - 55.4 °F 94% 29.93 in 6.0 mi SSW 11.5 mph - 0.04 in Rain Light Rain
12:53 AM 57.0 °F - 55.0 °F 93% 29.92 in 4.0 mi SSW 10.4 mph - 0.07 in Rain Light Rain
1:53 AM 57.9 °F - 55.0 °F 90% 29.90 in 3.0 mi South 11.5 mph - 0.11 in Rain Rain
2:14 AM 57.2 °F - 55.4 °F 94% 29.88 in 9.0 mi South 8.1 mph - 0.02 in Rain Light Rain
2:23 AM 57.2 °F - 55.4 °F 94% 29.88 in 7.0 mi South 9.2 mph - 0.03 in Rain Light Rain
2:53 AM 57.9 °F - 55.9 °F 93% 29.87 in 3.0 mi SSW 9.2 mph - 0.10 in Rain Rain
3:01 AM 57.2 °F - 55.4 °F 94% 29.89 in 1.8 mi Variable 6.9 mph - 0.09 in Rain Rain
3:11 AM 57.2 °F - 55.4 °F 94% 29.89 in 2.5 mi NW 8.1 mph 17.3 mph 0.13 in Rain Light Rain
3:18 AM 57.2 °F - 55.4 °F 94% 29.90 in 6.0 mi Variable 6.9 mph 17.3 mph 0.13 in Rain Light Rain
3:25 AM 57.2 °F - 55.4 °F 94% 29.89 in 5.0 mi NW 8.1 mph 18.4 mph 0.16 in Rain Rain
3:53 AM 55.9 °F - 54.0 °F 93% 29.89 in 6.0 mi NW 5.8 mph - 0.22 in Rain Light Rain
4:07 AM 51.8 °F - 48.2 °F 88% 29.90 in 10.0 mi NNW 12.7 mph 27.6 mph 0.01 in Rain Light Rain
4:53 AM 48.9 °F - 46.0 °F 90% 29.94 in 7.0 mi NW 13.8 mph 19.6 mph 0.08 in Rain Light Rain
5:02 AM 48.2 °F - 46.4 °F 93% 29.95 in 10.0 mi NW 10.4 mph 20.7 mph 0.01 in Rain Light Rain
5:34 AM 48.2 °F - 46.4 °F 93% 29.93 in 10.0 mi NW 8.1 mph - 0.03 in Rain Light Rain
5:53 AM 48.0 °F - 45.0 °F 89% 29.95 in 8.0 mi NNW 9.2 mph - 0.04 in Rain Light Rain
6:53 AM 46.9 °F - 45.0 °F 93% 29.96 in 8.0 mi Variable 6.9 mph - 0.06 in Rain Light Rain
7:53 AM 45.0 °F 38.9 °F 42.1 °F 90% 30.00 in 5.0 mi NNW 12.7 mph 20.7 mph 0.01 in   Overcast
8:53 AM 45.0 °F 38.5 °F 39.9 °F 82% 30.02 in 10.0 mi NNW 13.8 mph 20.7 mph N/A   Overcast
9:00 AM 44.6 °F 39.2 °F 39.2 °F 81% 30.01 in 10.0 mi NW 10.4 mph 20.7 mph N/A   Overcast
9:53 AM 46.0 °F 41.0 °F 39.0 °F 76% 30.05 in 10.0 mi NW 10.4 mph 18.4 mph N/A   Overcast
10:53 AM 46.9 °F - 37.0 °F 68% 30.06 in 10.0 mi NW 8.1 mph - N/A   Overcast
11:44 AM 44.6 °F 39.2 °F 37.4 °F 76% 30.06 in 10.0 mi NW 10.4 mph 20.7 mph 0.00 in Rain Light Rain
11:53 AM 43.0 °F 36.4 °F 37.9 °F 82% 30.08 in 8.0 mi NW 12.7 mph 18.4 mph 0.00 in Rain Light Rain
12:21 PM 44.6 °F 40.2 °F 41.0 °F 87% 30.04 in 10.0 mi WNW 8.1 mph - 0.01 in   Mostly Cloudy
12:45 PM 44.6 °F 38.8 °F 37.4 °F 76% 30.04 in 3.0 mi WNW 11.5 mph 17.3 mph 0.02 in Rain Rain
12:53 PM 44.1 °F 37.7 °F 37.0 °F 76% 30.06 in 6.0 mi West 12.7 mph 19.6 mph 0.03 in Rain Light Rain
1:07 PM 44.6 °F 38.8 °F 37.4 °F 76% 30.04 in 10.0 mi West 11.5 mph 20.7 mph 0.00 in   Overcast
1:53 PM 46.9 °F - 37.0 °F 68% 30.05 in 10.0 mi Variable 6.9 mph 20.7 mph 0.00 in   Overcast
2:53 PM 46.0 °F 41.0 °F 32.0 °F 58% 30.05 in 10.0 mi West 10.4 mph 17.3 mph N/A   Overcast
3:53 PM 45.0 °F 38.5 °F 30.9 °F 58% 30.06 in 10.0 mi West 13.8 mph 26.5 mph N/A   Overcast
4:53 PM 43.0 °F 35.1 °F 25.0 °F 49% 30.09 in 10.0 mi NW 17.3 mph 27.6 mph N/A   Overcast
5:53 PM 41.0 °F 33.5 °F 23.0 °F 49% 30.13 in 10.0 mi West 13.8 mph 23.0 mph N/A   Overcast
6:53 PM 41.0 °F 35.8 °F 25.0 °F 53% 30.15 in 10.0 mi West 8.1 mph - N/A   Overcast
7:53 PM 41.0 °F 35.2 °F 26.1 °F 55% 30.15 in 10.0 mi WSW 9.2 mph - N/A   Overcast
8:53 PM 41.0 °F 35.2 °F 26.1 °F 55% 30.14 in 10.0 mi West 9.2 mph - N/A   Overcast
9:53 PM 41.0 °F 35.2 °F 27.0 °F 57% 30.14 in 10.0 mi WSW 9.2 mph - N/A   Overcast
10:53 PM 39.9 °F 33.9 °F 27.0 °F 60% 30.12 in 10.0 mi WSW 9.2 mph - N/A   Overcast
11:53 PM 39.0 °F 34.0 °F 27.0 °F 62% 30.12 in 10.0 mi WSW 6.9 mph - N/A   Mostly Cloudy